Weather in Ommen

Netherlands     52°31′15″N   6°25′31″E
temp.,
°C
wind,
m/s
gust,
m/s
humid.,
%
clouds,
%
prec.,
mm/h
press.,
hPa
HPBL,
m
26 june, sun
sun2623:00+18se1186100 1.7 101213
02:00+17wsw2294100 3.1 101236
05:00+16sw369697 0.3 1012200
08:00+17sw468737 0.3 1014391
11:00+20wsw566255 0.0 10151090
14:00+21wsw5651100 0.0 10161626
17:00+21s2354100 0.0 10161434
20:00+19sse3474100 0.0 1016364
27 june, mon
mon2723:00+15se338898 0.0 101638
02:00+15se2387100 0.2 101676
05:00+15sse2395100 0.6 101579
08:00+15ssw2393100 0.9 1016156
11:00+19w337399 0.0 1016788
14:00+21w566397 1.3 10161276
17:00+20w455783 0.1 10171092
20:00+18wnw356936 0.2 1018348
28 june, tue
tue2823:00+15w227626 0.0 102012
02:00+13sw127992 0.0 102111
05:00+12ssw33745 0.0 102129
08:00+15sw35674 0.0 1022243
11:00+20sw34510 0.0 10221020
14:00+23s354111 0.0 10202304
17:00+24s24384 0.0 10182207
20:00+24ne005438 0.0 101817
29 june, wed
wed2923:00+18e22635 0.0 101823
02:00+16e2363100 0.0 101724
05:00+15ese35803 0.0 101673
08:00+19sse35735 0.0 1016188
11:00+25s345328 0.0 1016815
14:00+27s3542100 0.0 10152212
17:00+28s3538100 0.0 10142512
20:00+24se356699 0.0 1014136
30 june, thu
thu3023:00+20se11795 0.0 101411
02:00+18ene33795 0.0 101426
05:00+19ese347412 0.0 101365
08:00+22ese356810 0.0 1012232
11:00+24se356997 0.0 1012411
14:00+27se255194 0.0 1011863
17:00+30se67354 0.0 10092231
20:00+27e47520 0.0 1008219